Location: Bright Sky Observatory
(40.7821°N, 74.2425°W)
Time: 05:48:01
(UTC-04:00)

Amateur Radio Satellites - All Passes

Search period start: 26 April 2017 05:18
Search period end: 27 April 2017 05:18
Location: Bright Sky Observatory, 40.7821°N, 74.2425°W

Satellite Date Start Highest point End Downlink Frequencies (MHz)
Time Altitude Azimuth
KKS-1 26 Apr 05:30:28 05:34:25 30° 263° (W) 05:38:22 437.445
M-CUBED/EXP-1 PRIME 26 Apr 05:49:53 05:51:40 12° 55° (NE) 05:53:28 437.505
ITAMSAT 1 26 Apr 05:52:27 05:55:45 17° 298° (WNW) 05:59:03 435.822/435.867
DOVE 4 26 Apr 05:54:15 05:57:26 18° 91° (E) 06:00:29 437.250
XW-2F 26 Apr 06:02:30 06:03:35 11° 91° (E) 06:04:40 145.980 - 146.000
CUBESAT XI-V 26 Apr 06:02:38 06:05:42 17° 268° (W) 06:08:47 437.345
STARS 26 Apr 06:04:26 06:08:18 29° 263° (W) 06:12:11 437.465
SO-50 26 Apr 06:09:58 06:13:49 26° 113° (ESE) 06:17:38 436.795
NUDT-PHONESAT 26 Apr 06:15:40 06:17:25 13° 92° (E) 06:19:10 437.300
STRAND 1 26 Apr 06:19:00 06:22:29 19° 63° (ENE) 06:25:57 437.568
XW-2D 26 Apr 06:49:26 06:53:08 46° 99° (E) 06:56:48 145.860 - 145.880
CUTE-I 26 Apr 06:53:25 06:58:28 43° 99° (E) 07:03:30 437.470
XW-2B 26 Apr 06:56:18 07:00:03 54° 99° (E) 07:03:48 145.730 - 145.750
AO-7 26 Apr 06:56:23 07:01:52 20° 310° (NW) 07:07:23 .
HO-68 26 Apr 06:56:30 06:59:57 14° 88° (E) 07:03:21 435.675
YUBILEINY 26 Apr 06:58:44 07:04:47 20° 297° (WNW) 07:10:54 435.215
LilacSat-2 26 Apr 07:06:23 07:10:14 80° 103° (ESE) 07:14:05 437.200
KAITUO 1B 26 Apr 07:07:36 07:11:20 60° 100° (E) 07:15:05 145.475/437.950
XW-2C 26 Apr 07:08:08 07:11:57 80° 102° (ESE) 07:15:47 145.795 - 145.815
RS-15 26 Apr 07:15:56 07:27:24 55° 111° (ESE) 07:39:14 29.354- 29.394
M-CUBED/EXP-1 PRIME 26 Apr 07:20:45 07:25:21 87° 249° (WSW) 07:30:04 437.505
DOVE 4 26 Apr 07:31:00 07:35:21 40° 289° (WNW) 07:39:27 437.250
XW-2F 26 Apr 07:34:19 07:37:59 48° 286° (WNW) 07:41:39 145.980 - 146.000
CUTE 1.7 + AOD 2 26 Apr 07:35:26 07:38:39 20° 94° (E) 07:41:49 437.475
NUDT-PHONESAT 26 Apr 07:48:01 07:51:30 39° 287° (WNW) 07:54:59 437.300
SO-50 26 Apr 07:49:52 07:54:07 36° 310° (NW) 07:58:21 436.795
STRAND 1 26 Apr 07:56:13 08:01:12 55° 259° (W) 08:06:14 437.568
SEEDS 26 Apr 07:56:37 07:59:59 22° 94° (E) 08:03:19 437.485
XW-2A 26 Apr 08:08:11 08:11:27 46° 100° (E) 08:14:41 145.665 - 145.685
UWE-3 26 Apr 08:22:24 08:25:18 18° 93° (E) 08:28:12 435.000/436.395/437.385
XW-2D 26 Apr 08:25:12 08:26:54 13° 295° (WNW) 08:28:37 145.860 - 145.880
Tancredo 1 26 Apr 08:29:38 08:32:36 45° 139° (SE) 08:35:35 437.200
XW-2B 26 Apr 08:32:41 08:33:46 11° 296° (WNW) 08:34:51 145.730 - 145.750
PRISM 26 Apr 08:32:45 08:34:06 11° 62° (ENE) 08:35:27 437.425
CUBEBUG 2 26 Apr 08:33:25 08:37:20 39° 98° (E) 08:41:18 437.445
CUTE-I 26 Apr 08:34:02 08:38:14 24° 295° (WNW) 08:42:27 437.470
HO-68 26 Apr 08:41:22 08:48:37 84° 105° (ESE) 08:55:50 435.675
ISS 26 Apr 08:45:56 08:49:06 52° 139° (SE) 08:52:17 437.550
UNISAT 6 26 Apr 08:53:46 08:55:32 12° 63° (ENE) 08:57:18 437.425
AAUSAT CUBESAT 2 26 Apr 09:05:49 09:10:00 65° 101° (E) 09:14:09 437.432
CUTE 1.7 + AOD 2 26 Apr 09:10:39 09:14:32 34° 289° (WNW) 09:18:24 437.475
ZACube-1 26 Apr 09:18:23 09:22:25 43° 99° (E) 09:26:30 437.345
FO-29 26 Apr 09:22:03 09:27:07 27° 67° (ENE) 09:31:47 435.910
AO-73 26 Apr 09:25:35 09:29:40 47° 100° (E) 09:33:48 145.935
RS-15 26 Apr 09:28:25 09:40:07 51° 315° (NW) 09:52:07 29.354- 29.394
SEEDS 26 Apr 09:31:56 09:35:40 30° 290° (WNW) 09:39:23 437.485
Oscar 11 26 Apr 09:41:51 09:46:10 61° 100° (E) 09:50:27 .
DELFI C3 26 Apr 09:55:43 09:58:58 23° 95° (E) 10:02:11 145.870
UWE-3 26 Apr 09:58:01 10:01:52 36° 288° (WNW) 10:05:46 435.000/436.395/437.385
PRISM 26 Apr 10:04:42 10:08:49 65° 258° (WSW) 10:12:58 437.425
Tancredo 1 26 Apr 10:06:02 10:08:39 24° 336° (NNW) 10:11:15 437.200
TIGRISAT 26 Apr 10:06:17 10:10:39 68° 75° (ENE) 10:14:57 435.000
CUBEBUG 2 26 Apr 10:10:57 10:13:40 17° 294° (WNW) 10:16:24 437.445
PCSat 26 Apr 10:22:57 10:26:25 17° 42° (NE) 10:29:52 145.827
ISS 26 Apr 10:23:02 10:25:45 24° 337° (NNW) 10:28:28 437.550
UNISAT 6 26 Apr 10:27:22 10:31:44 64° 259° (WSW) 10:36:03 437.425
HO-68 26 Apr 10:30:35 10:35:28 20° 304° (NW) 10:40:22 435.675
O/OREOS (USA 219) 26 Apr 10:39:18 10:43:51 68° 110° (ESE) 10:48:26 437.305
AAUSAT CUBESAT 2 26 Apr 10:43:32 10:44:53 11° 297° (WNW) 10:46:14 437.432
OBJECT BX 26 Apr 10:44:25 10:48:05 70° 101° (ESE) 10:51:44 145.990 - 145.960
POLYITAN 1 26 Apr 10:47:47 10:50:14 15° 65° (ENE) 10:52:42 437.675
QB50P2 26 Apr 10:53:44 10:56:44 19° 67° (ENE) 10:59:45 145.880/145.840
ZACube-1 26 Apr 10:55:44 10:58:22 16° 294° (WNW) 11:01:01 437.345
AO-73 26 Apr 11:03:06 11:05:31 15° 295° (WNW) 11:07:58 145.935
FO-29 26 Apr 11:05:53 11:12:01 46° 260° (W) 11:17:32 435.910
AIST 2D 26 Apr 11:13:05 11:16:25 47° 74° (ENE) 11:19:46 435.315
NANOSAT C BR1 26 Apr 11:15:31 11:19:05 27° 69° (ENE) 11:22:39 145.865
Oscar 11 26 Apr 11:19:49 11:21:46 13° 297° (WNW) 11:23:44 .
DELFI C3 26 Apr 11:30:20 11:33:40 26° 291° (WNW) 11:36:59 145.870
EO-79 26 Apr 11:42:19 11:46:28 60° 75° (ENE) 11:50:38 145.935-145.965
Tancredo 1 26 Apr 11:44:14 11:45:24 12° 356° (N) 11:46:35 437.200
DUCHIFAT 1 26 Apr 11:44:59 11:49:04 52° 73° (ENE) 11:53:08 145.980
RS-15 26 Apr 11:47:16 11:56:39 24° 346° (NNW) 12:06:03 29.354- 29.394
TIGRISAT 26 Apr 11:47:18 11:47:45 10° 270° (W) 11:48:11 435.000
LO-87 26 Apr 11:50:00 11:53:31 55° 101° (E) 11:56:59 145.935 - 145.965
AO-85 26 Apr 11:51:37 11:53:49 14° 110° (ESE) 11:55:58 145.980
ISS 26 Apr 12:01:38 12:03:06 12° 357° (N) 12:04:35 437.550
PCSat 26 Apr 12:05:05 12:10:33 87° 242° (WSW) 12:15:58 145.827
O/OREOS (USA 219) 26 Apr 12:21:19 12:23:45 14° 307° (NW) 12:26:14 437.305
POLYITAN 1 26 Apr 12:21:35 12:25:38 46° 261° (W) 12:29:43 437.675
SPROUT 26 Apr 12:22:56 12:25:41 17° 93° (E) 12:28:25 437.525
Gurwin Techsat 1B 26 Apr 12:26:47 12:28:55 12° 58° (ENE) 12:31:02 435.225
Oscar 19 26 Apr 12:26:51 12:30:35 21° 63° (ENE) 12:34:20 437.125/150
QB50P2 26 Apr 12:28:22 12:32:16 36° 262° (W) 12:36:11 145.880/145.840
ESTCUBE 1 26 Apr 12:36:44 12:41:18 85° 283° (WNW) 12:45:50 437.505/2401.250
BUGSAT 1 26 Apr 12:48:32 12:52:41 89° 76° (ENE) 12:56:49 437.445
NANOSAT C BR1 26 Apr 12:51:19 12:54:45 24° 265° (W) 12:58:11 145.865
VELOX 1 26 Apr 12:52:02 12:56:10 37° 98° (E) 13:00:15 145.980
UKube-1 26 Apr 13:14:08 13:16:54 17° 93° (E) 13:19:40 .
Tancredo 1 26 Apr 13:20:18 13:22:19 16° 16° (NNE) 13:24:19 437.200
EO-79 26 Apr 13:21:24 13:22:36 11° 270° (W) 13:23:47 145.935-145.965
DUCHIFAT 1 26 Apr 13:23:12 13:25:01 13° 269° (W) 13:26:51 145.980
AO-85 26 Apr 13:29:37 13:33:49 55° 305° (NW) 13:37:48 145.980
ISS 26 Apr 13:38:16 13:40:34 18° 17° (NNE) 13:42:53 437.550
DX 1 26 Apr 13:45:05 13:49:23 53° 101° (E) 13:53:37 434.975-435.025
PCSat 26 Apr 13:51:47 13:53:04 11° 259° (WSW) 13:54:22 145.827
ITAMSAT 1 26 Apr 13:53:48 13:55:48 12° 58° (ENE) 13:57:48 435.822/435.867
SPROUT 26 Apr 13:57:46 14:01:45 40° 288° (WNW) 14:05:42 437.525
50 SAT 26 Apr 13:59:59 14:03:22 49° 286° (WNW) 14:06:43 437.505
Gurwin Techsat 1B 26 Apr 14:02:44 14:08:03 90° 105° (ESE) 14:13:25 435.225
Oscar 19 26 Apr 14:04:30 14:09:30 51° 260° (W) 14:14:33 437.125/150
RS-15 26 Apr 14:04:57 14:15:00 27° 22° (NNE) 14:24:47 29.354- 29.394
AO-7 26 Apr 14:09:40 14:16:31 30° 57° (ENE) 14:23:23 .
BEESAT 2 26 Apr 14:13:28 14:16:52 28° 114° (ESE) 14:20:20 435.950
BEESAT 3 26 Apr 14:14:48 14:18:43 84° 121° (ESE) 14:22:44 437.485
VELOX 1 26 Apr 14:29:06 14:32:21 20° 294° (WNW) 14:35:35 145.980
ITUPSAT 1 26 Apr 14:39:17 14:40:42 11° 90° (E) 14:42:06 437.325
SO-50 26 Apr 14:41:01 14:44:43 24° 46° (NE) 14:48:24 436.795
UKube-1 26 Apr 14:49:02 14:53:06 42° 289° (WNW) 14:57:10 .
Tancredo 1 26 Apr 14:55:35 14:58:41 67° 35° (NE) 15:01:46 437.200
YUBILEINY 26 Apr 15:08:50 15:17:02 42° 73° (ENE) 15:25:13 435.215
ISS 26 Apr 15:14:12 15:17:29 79° 37° (NE) 15:20:43 437.550
DX 1 26 Apr 15:22:43 15:25:06 15° 297° (WNW) 15:27:29 434.975-435.025
ITAMSAT 1 26 Apr 15:29:18 15:34:30 89° 260° (W) 15:39:42 435.822/435.867
MOZHAYETS 4 26 Apr 15:30:51 15:34:14 20° 93° (E) 15:37:37
BEESAT 26 Apr 15:33:57 15:38:30 43° 99° (E) 15:43:03 436.000
Gurwin Techsat 1B 26 Apr 15:47:51 15:48:40 10° 272° (W) 15:49:33 435.225
BEESAT 2 26 Apr 15:51:13 15:54:36 26° 311° (NW) 15:58:02 435.950
BEESAT 3 26 Apr 15:55:12 15:56:52 12° 320° (NW) 15:58:34 437.485
AO-7 26 Apr 16:00:30 16:08:43 65° 256° (WSW) 16:16:58 .
ITUPSAT 1 26 Apr 16:14:14 16:19:01 74° 286° (WNW) 16:23:47 437.325
RS-15 26 Apr 16:18:14 16:30:30 67° 52° (NE) 16:42:08 29.354- 29.394
SO-50 26 Apr 16:21:05 16:25:19 41° 244° (WSW) 16:29:32 436.795
CUBESAT XI-V 26 Apr 16:22:26 16:24:11 12° 89° (E) 16:25:57 437.345
Tancredo 1 26 Apr 16:32:56 16:34:12 12° 230° (SW) 16:35:27 437.200
ISS 26 Apr 16:52:34 16:53:29 11° 231° (SW) 16:54:26 437.550
DOVE 4 26 Apr 16:58:25 17:02:28 23° 66° (ENE) 17:06:28 437.250
YUBILEINY 26 Apr 17:05:44 17:13:47 43° 273° (W) 17:21:52 435.215
MOZHAYETS 4 26 Apr 17:07:14 17:11:31 39° 289° (WNW) 17:15:49
BEESAT 26 Apr 17:12:29 17:15:57 20° 295° (WNW) 17:19:26 436.000
KKS-1 26 Apr 17:20:55 17:25:14 49° 100° (E) 17:29:31 437.445
HO-68 26 Apr 17:27:37 17:29:57 12° 49° (NE) 17:32:16 435.675
XW-2D 26 Apr 17:30:57 17:33:49 21° 69° (ENE) 17:36:42 145.860 - 145.880
XW-2B 26 Apr 17:37:38 17:40:42 25° 70° (ENE) 17:43:49 145.730 - 145.750
KAITUO 1B 26 Apr 17:47:40 17:50:44 26° 70° (ENE) 17:53:51 145.475/437.950
LilacSat-2 26 Apr 17:47:58 17:51:25 35° 72° (ENE) 17:54:51 437.200
XW-2C 26 Apr 17:49:10 17:52:34 34° 72° (ENE) 17:55:59 145.795 - 145.815
STARS 26 Apr 17:53:16 17:57:30 47° 100° (E) 18:01:42 437.465
CUBESAT XI-V 26 Apr 17:57:19 18:02:01 69° 286° (WNW) 18:06:41 437.345
AO-7 26 Apr 18:02:00 18:02:58 10° 274° (W) 18:03:56 .
XW-2F 26 Apr 18:14:27 18:18:09 71° 76° (ENE) 18:21:53 145.980 - 146.000
CUTE-I 26 Apr 18:14:49 18:20:08 70° 73° (ENE) 18:25:27 437.470
NUDT-PHONESAT 26 Apr 18:26:29 18:30:08 82° 79° (E) 18:33:49 437.300
CUTE 1.7 + AOD 2 26 Apr 18:28:45 18:31:03 15° 64° (ENE) 18:33:22 437.475
RS-15 26 Apr 18:31:37 18:42:12 38° 255° (WSW) 18:52:22 29.354- 29.394
NO-84 26 Apr 18:31:52 18:32:55 11° 125° (SE) 18:33:57 435.350 FM
DOVE 4 26 Apr 18:34:42 18:39:48 47° 262° (W) 18:44:51 437.250
XW-2A 26 Apr 18:40:18 18:42:20 15° 68° (ENE) 18:44:23 145.665 - 145.685
SEEDS 26 Apr 18:48:48 18:51:18 16° 65° (ENE) 18:53:49 437.485
KKS-1 26 Apr 18:58:40 19:01:23 16° 296° (WNW) 19:04:05 437.445
XW-2D 26 Apr 19:04:48 19:07:53 24° 265° (W) 19:10:59 145.860 - 145.880
HO-68 26 Apr 19:09:14 19:16:13 61° 69° (ENE) 19:23:15 435.675
O/OREOS (USA 219) 26 Apr 19:11:49 19:14:19 14° 53° (NE) 19:16:49 437.305
XW-2B 26 Apr 19:12:00 19:14:51 21° 266° (W) 19:17:44 145.730 - 145.750
UWE-3 26 Apr 19:19:55 19:22:19 15° 65° (ENE) 19:24:42 435.000/436.395/437.385
KAITUO 1B 26 Apr 19:22:02 19:24:44 19° 266° (W) 19:27:28 145.475/437.950
LilacSat-2 26 Apr 19:23:39 19:25:49 15° 268° (W) 19:28:00 437.200
XW-2C 26 Apr 19:24:42 19:26:52 15° 268° (W) 19:29:04 145.795 - 145.815
STARS 26 Apr 19:30:45 19:33:27 16° 296° (WNW) 19:36:08 437.465
CUBEBUG 2 26 Apr 19:31:11 19:35:04 32° 71° (ENE) 19:38:53 437.445
AAUSAT CUBESAT 2 26 Apr 19:55:24 19:59:16 39° 72° (ENE) 20:03:10 437.432
CUTE-I 26 Apr 19:57:49 20:00:40 14° 270° (W) 20:03:31 437.470
CUTE 1.7 + AOD 2 26 Apr 20:02:22 20:06:26 49° 260° (W) 20:10:35 437.475
NO-84 26 Apr 20:06:24 20:10:07 80° 318° (NW) 20:13:31 435.350 FM
STRAND 1 26 Apr 20:06:47 20:11:46 51° 100° (E) 20:16:43 437.568
XW-2A 26 Apr 20:11:59 20:14:52 26° 263° (W) 20:17:46 145.665 - 145.685
ZACube-1 26 Apr 20:14:00 20:17:44 32° 71° (ENE) 20:21:27 437.345
AO-73 26 Apr 20:20:51 20:24:38 34° 71° (ENE) 20:28:24 145.935
AO-85 26 Apr 20:21:51 20:23:45 13° 42° (NE) 20:25:41 145.980
SEEDS 26 Apr 20:22:36 20:26:36 45° 261° (W) 20:30:40 437.485
M-CUBED/EXP-1 PRIME 26 Apr 20:34:39 20:38:51 72° 108° (ESE) 20:42:40 437.505
Oscar 11 26 Apr 20:36:08 20:40:12 43° 72° (ENE) 20:44:18 .
DELFI C3 26 Apr 20:41:57 20:44:02 14° 65° (ENE) 20:46:07 145.870
O/OREOS (USA 219) 26 Apr 20:49:40 20:54:13 66° 251° (WSW) 20:58:42 437.305
UWE-3 26 Apr 20:54:15 20:58:24 47° 261° (W) 21:02:28 435.000/436.395/437.385
HO-68 26 Apr 20:58:40 21:04:21 25° 266° (W) 21:10:04 435.675
CUBEBUG 2 26 Apr 21:08:23 21:11:43 21° 265° (W) 21:15:01 437.445
OBJECT BX 26 Apr 21:22:09 21:25:15 27° 70° (ENE) 21:28:21 145.990 - 145.960
AAUSAT CUBESAT 2 26 Apr 21:32:16 21:34:53 16° 268° (W) 21:37:32 437.432
NO-84 26 Apr 21:46:06 21:48:03 14° 334° (NNW) 21:49:55 435.350 FM
STRAND 1 26 Apr 21:46:56 21:50:33 20° 297° (WNW) 21:54:09 437.568
PRISM 26 Apr 21:47:16 21:49:59 17° 93° (E) 21:52:41 437.425
ZACube-1 26 Apr 21:50:58 21:54:04 20° 266° (W) 21:57:10 437.345
AO-73 26 Apr 21:58:02 22:00:58 18° 267° (W) 22:03:53 145.935
TIGRISAT 26 Apr 21:59:22 22:01:32 14° 92° (E) 22:03:44 435.000
AO-85 26 Apr 22:00:36 22:04:35 74° 239° (WSW) 22:08:44 145.980
M-CUBED/EXP-1 PRIME 26 Apr 22:11:20 22:12:34 11° 305° (NW) 22:13:47 437.505
Oscar 11 26 Apr 22:13:56 22:16:32 16° 268° (W) 22:19:10 .
DELFI C3 26 Apr 22:14:34 22:18:23 46° 261° (W) 22:22:16 145.870
FO-29 26 Apr 22:15:27 22:19:12 19° 94° (E) 22:23:05 435.910
UNISAT 6 26 Apr 22:19:27 22:23:01 25° 95° (E) 22:26:35 437.425
LO-87 26 Apr 22:26:10 22:29:01 22° 69° (ENE) 22:31:52 145.935 - 145.965
BEESAT 2 26 Apr 22:31:19 22:34:17 19° 45° (NE) 22:37:15 435.950
BEESAT 3 26 Apr 22:31:50 22:35:42 43° 53° (NE) 22:39:30 437.485
OBJECT BX 26 Apr 22:56:26 22:58:56 18° 266° (W) 23:01:27 145.990 - 145.960
SPROUT 26 Apr 23:16:53 23:18:59 13° 64° (ENE) 23:21:04 437.525
PRISM 26 Apr 23:21:32 23:25:24 38° 289° (WNW) 23:29:13 437.425
TIGRISAT 26 Apr 23:34:21 23:38:30 50° 287° (WNW) 23:42:41 435.000
ESTCUBE 1 26 Apr 23:35:33 23:40:03 84° 76° (ENE) 23:44:36 437.505/2401.250
VELOX 1 26 Apr 23:48:51 23:52:49 33° 69° (ENE) 23:56:49 145.980
UNISAT 6 26 Apr 23:56:02 23:59:40 27° 291° (WNW) 00:03:20 437.425
LO-87 26 Apr 23:59:28 00:02:21 22° 265° (W) 00:05:16 145.935 - 145.965
FO-29 26 Apr 23:59:33 00:04:34 49° 288° (WNW) 00:09:51 435.910
POLYITAN 1 27 Apr 00:06:44 00:10:18 26° 96° (E) 00:13:51 437.675
BEESAT 2 27 Apr 00:08:23 00:12:16 45° 243° (WSW) 00:16:06 435.950
UKube-1 27 Apr 00:08:53 00:11:18 15° 63° (ENE) 00:13:45 .
BEESAT 3 27 Apr 00:10:22 00:12:56 17° 250° (WSW) 00:15:29 437.485
AIST 2D 27 Apr 00:11:13 00:14:43 62° 100° (E) 00:18:13 435.315
QB50P2 27 Apr 00:13:09 00:17:00 34° 98° (E) 00:20:50 145.880/145.840
50 SAT 27 Apr 00:32:00 00:35:22 52° 75° (ENE) 00:38:48 437.505
BUGSAT 1 27 Apr 00:32:22 00:33:59 12° 91° (E) 00:35:36 437.445
NANOSAT C BR1 27 Apr 00:34:47 00:38:52 50° 100° (E) 00:42:56 145.865
DX 1 27 Apr 00:40:03 00:44:12 45° 72° (ENE) 00:48:24 434.975-435.025
SPROUT 27 Apr 00:50:12 00:54:24 56° 260° (W) 00:58:37 437.525
EO-79 27 Apr 01:02:38 01:06:49 68° 285° (WNW) 01:10:59 145.935-145.965
DUCHIFAT 1 27 Apr 01:04:27 01:08:38 80° 283° (WNW) 01:12:47 145.980
PCSat 27 Apr 01:07:10 01:08:57 12° 102° (ESE) 01:10:44 145.827
VELOX 1 27 Apr 01:25:46 01:29:18 23° 265° (W) 01:32:51 145.980
POLYITAN 1 27 Apr 01:42:33 01:45:59 25° 291° (WNW) 01:49:25 437.675
UKube-1 27 Apr 01:42:40 01:46:53 52° 259° (W) 01:51:08 .
ITUPSAT 1 27 Apr 01:45:29 01:47:59 14° 61° (ENE) 01:50:28 437.325
QB50P2 27 Apr 01:49:29 01:52:33 20° 293° (WNW) 01:55:37 145.880/145.840
BUGSAT 1 27 Apr 02:05:44 02:09:38 49° 287° (WNW) 02:13:29 437.445
NANOSAT C BR1 27 Apr 02:11:56 02:14:08 14° 296° (WNW) 02:16:20 145.865
Oscar 19 27 Apr 02:16:03 02:21:12 58° 101° (E) 02:26:19 437.125/150
DX 1 27 Apr 02:17:52 02:20:36 16° 267° (W) 02:23:21 434.975-435.025
Gurwin Techsat 1B 27 Apr 02:19:27 02:24:20 36° 97° (E) 02:29:12 435.225
MOZHAYETS 4 27 Apr 02:32:49 02:36:00 19° 65° (ENE) 02:39:12
BEESAT 27 Apr 02:39:53 02:44:27 49° 72° (ENE) 02:49:02 436.000
NO-84 27 Apr 02:41:03 02:43:53 51° 38° (NE) 02:46:40 435.350 FM
PCSat 27 Apr 02:46:05 02:51:30 88° 293° (WNW) 02:56:59 145.827
ITUPSAT 1 27 Apr 03:20:32 03:25:15 65° 259° (W) 03:29:59 437.325
CUBESAT XI-V 27 Apr 03:25:55 03:27:49 12° 61° (ENE) 03:29:42 437.345
ITAMSAT 1 27 Apr 03:42:42 03:47:20 32° 97° (E) 03:51:55 435.822/435.867
Oscar 19 27 Apr 03:56:32 04:00:03 19° 298° (WNW) 04:03:32 437.125/150
Gurwin Techsat 1B 27 Apr 03:59:38 04:04:08 29° 294° (WNW) 04:08:37 435.225
AO-7 27 Apr 04:02:21 04:10:14 45° 100° (E) 04:18:04 .
MOZHAYETS 4 27 Apr 04:08:32 04:12:50 42° 262° (W) 04:17:11
YUBILEINY 27 Apr 04:09:23 04:17:33 48° 88° (E) 04:25:44 435.215
KKS-1 27 Apr 04:18:25 04:22:40 44° 71° (ENE) 04:26:55 437.445
BEESAT 27 Apr 04:19:25 04:22:29 17° 268° (W) 04:25:34 436.000
PCSat 27 Apr 04:32:23 04:35:42 16° 318° (NW) 04:39:01 145.827
STARS 27 Apr 04:49:21 04:53:29 41° 71° (ENE) 04:57:37 437.465
CUBESAT XI-V 27 Apr 04:59:54 05:04:32 73° 259° (WSW) 05:09:13 437.345
